• In Österreich
  • Länderverzeichnis
  • Für 7 Tage
  • Wassertemperatur
  • Satellitenkarten
  • Wetterkarte
  • News
  • Widgets
  • user-avatar
    Anmelden

    Stündliche Wetter Ilebo

    Heute, 21 September, Freitag

    Zeit Temperatur Niederschläge Wind Luftdruck Luftfeuchtigkeit
    00:00 +23°C° 0.1 mm 0 m/S 721 mmHg 81%
    01:00 +23°C° 0.1 mm 0 m/S 721 mmHg 83%
    02:00 +23°C° 0.5 mm 0 m/S 721 mmHg 85%
    03:00 +22°C° 0.5 mm 0 m/S 720 mmHg 87%
    04:00 +22°C° 0.5 mm 0 m/S 720 mmHg 88%
    05:00 +23°C° 0.2 mm 0 m/S 721 mmHg 86%
    06:00 +24°C° 0.2 mm 0 m/S 721 mmHg 84%
    07:00 +27°C° 0.2 mm 1 m/S 722 mmHg 82%
    08:00 +29°C° 0.7 mm 1 m/S 722 mmHg 73%
    09:00 +32°C° 0.7 mm 1 m/S 723 mmHg 63%
    10:00 +34°C° 0.7 mm 1 m/S 723 mmHg 54%
    11:00 +36°C° 0 mm 1 m/S 722 mmHg 49%
    12:00 +37°C° 0 mm 1 m/S 722 mmHg 44%
    13:00 +39°C° 0 mm 1 m/S 721 mmHg 38%
    14:00 +37°C° 0 mm 1 m/S 720 mmHg 42%
    15:00 +36°C° 0 mm 1 m/S 720 mmHg 45%
    16:00 +35°C° 0 mm 1 m/S 719 mmHg 48%
    17:00 +33°C° 0 mm 1 m/S 720 mmHg 53%
    18:00 +31°C° 0 mm 1 m/S 720 mmHg 58%
    19:00 +27°C° 0 mm 0 m/S 720 mmHg 63%
    20:00 +26°C° 0.1 mm 0 m/S 720 mmHg 66%
    21:00 +28°C° 0.1 mm 1 m/S 720 mmHg 68%
    22:00 +27°C° 0.1 mm 1 m/S 720 mmHg 71%
    23:00 +26°C° 0.7 mm 1 m/S 720 mmHg 77%

    Morgen, 22 September, Samstag

    Zeit Temperatur Niederschläge Wind Luftdruck Luftfeuchtigkeit
    00:00 +25°C° 0.7 mm 1 m/S 720 mmHg 83%
    01:00 +25°C° 0.7 mm 1 m/S 720 mmHg 89%
    02:00 +24°C° 1.8 mm 1 m/S 720 mmHg 91%
    03:00 +24°C° 1.8 mm 1 m/S 720 mmHg 93%
    04:00 +24°C° 1.8 mm 1 m/S 720 mmHg 94%
    05:00 +25°C° 0.5 mm 1 m/S 721 mmHg 93%
    06:00 +25°C° 0.5 mm 1 m/S 722 mmHg 92%
    07:00 +26°C° 0.5 mm 1 m/S 723 mmHg 90%
    08:00 +28°C° 0.3 mm 1 m/S 723 mmHg 80%
    09:00 +31°C° 0.3 mm 1 m/S 723 mmHg 69%
    10:00 +33°C° 0.3 mm 1 m/S 723 mmHg 59%
    11:00 +35°C° 0 mm 1 m/S 722 mmHg 52%
    12:00 +36°C° 0 mm 1 m/S 722 mmHg 46%
    13:00 +39°C° 0 mm 1 m/S 721 mmHg 40%
    14:00 +37°C° 0 mm 1 m/S 720 mmHg 42%
    15:00 +36°C° 0 mm 1 m/S 720 mmHg 45%
    16:00 +35°C° 0 mm 1 m/S 719 mmHg 47%
    17:00 +33°C° 0 mm 1 m/S 720 mmHg 53%
    18:00 +31°C° 0 mm 1 m/S 720 mmHg 58%
    19:00 +29°C° 0 mm 1 m/S 720 mmHg 64%
    20:00 +28°C° 0 mm 1 m/S 720 mmHg 67%
    21:00 +28°C° 0 mm 1 m/S 720 mmHg 70%
    22:00 +27°C° 0 mm 1 m/S 721 mmHg 73%
    23:00 +26°C° 0 mm 1 m/S 720 mmHg 76%

    übermorgen, 23 September, Sonntag

    Zeit Temperatur Niederschläge Wind Luftdruck Luftfeuchtigkeit
    00:00 +26°C° 0 mm 1 m/S 720 mmHg 79%
    01:00 +25°C° 0 mm 1 m/S 720 mmHg 82%
    02:00 +25°C° 0.5 mm 1 m/S 720 mmHg 86%
    03:00 +22°C° 0.5 mm 0 m/S 720 mmHg 90%
    04:00 +22°C° 0.5 mm 0 m/S 720 mmHg 94%
    05:00 +22°C° 0.5 mm 0 m/S 721 mmHg 93%
    06:00 +23°C° 0.5 mm 0 m/S 722 mmHg 92%
    07:00 +24°C° 0.5 mm 0 m/S 723 mmHg 91%
    08:00 +26°C° 1.2 mm 0 m/S 723 mmHg 84%
    09:00 +28°C° 1.2 mm 0 m/S 723 mmHg 77%
    10:00 +32°C° 1.2 mm 1 m/S 723 mmHg 70%
    11:00 +33°C° 0.3 mm 1 m/S 723 mmHg 63%
    12:00 +35°C° 0.3 mm 1 m/S 722 mmHg 55%
    13:00 +36°C° 0.3 mm 1 m/S 722 mmHg 48%
    14:00 +34°C° 1.6 mm 1 m/S 721 mmHg 60%
    15:00 +31°C° 1.6 mm 1 m/S 721 mmHg 72%
    16:00 +29°C° 1.6 mm 2 m/S 721 mmHg 84%
    17:00 +28°C° 0.1 mm 2 m/S 721 mmHg 87%
    18:00 +27°C° 0.1 mm 1 m/S 721 mmHg 89%
    19:00 +26°C° 0.1 mm 1 m/S 722 mmHg 92%
    20:00 +25°C° 0.1 mm 1 m/S 722 mmHg 93%
    21:00 +25°C° 0.1 mm 1 m/S 721 mmHg 94%
    22:00 +24°C° 0.1 mm 2 m/S 721 mmHg 95%
    23:00 +24°C° 0 mm 1 m/S 721 mmHg 95%

    24 September, Montag

    Zeit Temperatur Niederschläge Wind Luftdruck Luftfeuchtigkeit
    00:00 +24°C° 0 mm 1 m/S 721 mmHg 96%
    01:00 +23°C° 0 mm 1 m/S 720 mmHg 96%
    02:00 +23°C° 0 mm 1 m/S 721 mmHg 96%
    03:00 +23°C° 0 mm 1 m/S 721 mmHg 96%
    04:00 +23°C° 0 mm 1 m/S 721 mmHg 96%
    05:00 +24°C° 0.3 mm 1 m/S 722 mmHg 94%
    06:00 +24°C° 0.3 mm 1 m/S 723 mmHg 92%
    07:00 +25°C° 0.3 mm 1 m/S 724 mmHg 90%
    08:00 +28°C° 0 mm 1 m/S 724 mmHg 79%
    09:00 +30°C° 0 mm 1 m/S 724 mmHg 68%
    10:00 +32°C° 0 mm 1 m/S 725 mmHg 57%
    11:00 +33°C° 0.3 mm 1 m/S 723 mmHg 54%
    12:00 +35°C° 0.3 mm 2 m/S 722 mmHg 50%
    13:00 +36°C° 0.3 mm 2 m/S 721 mmHg 47%
    14:00 +35°C° 0 mm 1 m/S 720 mmHg 49%
    15:00 +34°C° 0 mm 1 m/S 720 mmHg 50%
    16:00 +34°C° 0 mm 1 m/S 720 mmHg 51%
    17:00 +32°C° 0 mm 1 m/S 720 mmHg 58%
    18:00 +30°C° 0 mm 2 m/S 721 mmHg 65%
    19:00 +28°C° 0 mm 2 m/S 721 mmHg 72%
    20:00 +27°C° 0.5 mm 1 m/S 721 mmHg 76%
    21:00 +26°C° 0.5 mm 1 m/S 722 mmHg 80%
    22:00 +26°C° 0.5 mm 1 m/S 722 mmHg 83%
    23:00 +25°C° 1 mm 1 m/S 722 mmHg 87%

    25 September, Dienstag

    Zeit Temperatur Niederschläge Wind Luftdruck Luftfeuchtigkeit
    00:00 +24°C° 1 mm 2 m/S 722 mmHg 90%
    01:00 +23°C° 1 mm 2 m/S 722 mmHg 93%
    02:00 +23°C° 0.2 mm 1 m/S 722 mmHg 93%
    03:00 +23°C° 0.2 mm 1 m/S 722 mmHg 92%
    04:00 +23°C° 0.2 mm 1 m/S 722 mmHg 91%
    05:00 +22°C° 0 mm 0 m/S 722 mmHg 90%
    06:00 +22°C° 0 mm 0 m/S 723 mmHg 89%
    07:00 +23°C° 0 mm 0 m/S 723 mmHg 87%
    08:00 +24°C° 0 mm 0 m/S 723 mmHg 82%
    09:00 +25°C° 0 mm 0 m/S 724 mmHg 77%
    10:00 +29°C° 0 mm 1 m/S 724 mmHg 72%
    11:00 +30°C° 0.1 mm 1 m/S 723 mmHg 65%
    12:00 +32°C° 0.1 mm 1 m/S 722 mmHg 58%
    13:00 +33°C° 0.1 mm 1 m/S 721 mmHg 51%
    14:00 +33°C° 0 mm 1 m/S 721 mmHg 52%
    15:00 +33°C° 0 mm 1 m/S 721 mmHg 52%
    16:00 +31°C° 0 mm 0 m/S 720 mmHg 53%
    17:00 +29°C° 0 mm 0 m/S 721 mmHg 57%
    18:00 +27°C° 0 mm 0 m/S 721 mmHg 62%
    19:00 +25°C° 0 mm 0 m/S 722 mmHg 67%
    20:00 +25°C° 0 mm 0 m/S 722 mmHg 69%
    21:00 +24°C° 0 mm 0 m/S 722 mmHg 71%
    22:00 +24°C° 0 mm 0 m/S 722 mmHg 73%
    23:00 +23°C° 0 mm 0 m/S 721 mmHg 75%

    26 September, Mittwoch

    Zeit Temperatur Niederschläge Wind Luftdruck Luftfeuchtigkeit
    00:00 +23°C° 0 mm 0 m/S 721 mmHg 77%
    01:00 +22°C° 0 mm 0 m/S 720 mmHg 79%
    02:00 +22°C° 0 mm 0 m/S 721 mmHg 79%
    03:00 +22°C° 0 mm 0 m/S 721 mmHg 78%
    04:00 +22°C° 0 mm 0 m/S 721 mmHg 78%
    05:00 +23°C° 0 mm 0 m/S 722 mmHg 76%
    06:00 +24°C° 0 mm 0 m/S 722 mmHg 75%
    07:00 +25°C° 0 mm 0 m/S 723 mmHg 73%
    08:00 +28°C° 0 mm 0 m/S 723 mmHg 64%
    09:00 +31°C° 0 mm 0 m/S 723 mmHg 55%
    10:00 +35°C° 0 mm 0 m/S 724 mmHg 46%
    11:00 +35°C° 0 mm 0 m/S 722 mmHg 44%
    12:00 +36°C° 0 mm 0 m/S 721 mmHg 41%
    13:00 +37°C° 0 mm 0 m/S 720 mmHg 39%
    14:00 +35°C° 0 mm 0 m/S 720 mmHg 43%
    15:00 +34°C° 0 mm 0 m/S 720 mmHg 48%
    16:00 +32°C° 0 mm 0 m/S 720 mmHg 52%
    17:00 +32°C° 0.1 mm 1 m/S 720 mmHg 58%
    18:00 +30°C° 0.1 mm 1 m/S 720 mmHg 65%
    19:00 +28°C° 0.1 mm 2 m/S 720 mmHg 71%
    20:00 +27°C° 1.1 mm 2 m/S 720 mmHg 77%
    21:00 +27°C° 1.1 mm 2 m/S 720 mmHg 82%
    22:00 +26°C° 1.1 mm 2 m/S 720 mmHg 88%
    23:00 +26°C° 0.1 mm 2 m/S 720 mmHg 88%
    Mehr zeigen